When you browse on this site, cookies collect data to enhance your experience and personalize the content and advertising you see.
Visit our Privacy Policy to learn more. By continuing to use the site, you agree to this use of cookies and data.

Meteo pe oră la Dzialy

Astăzi, 18 Septembrie, Vineri

Timp Temperatura Precipitaţii Vânt Presiune Umiditate
00:00 +8°C° 0 mm 3 m/s 761 mmHg 80%
01:00 +8°C° 0 mm 3 m/s 761 mmHg 80%
02:00 +7°C° 0 mm 3 m/s 761 mmHg 79%
03:00 +7°C° 0 mm 3 m/s 761 mmHg 79%
04:00 +7°C° 0 mm 3 m/s 761 mmHg 79%
05:00 +8°C° 0 mm 3 m/s 761 mmHg 76%
06:00 +8°C° 0 mm 3 m/s 761 mmHg 73%
07:00 +9°C° 0 mm 3 m/s 761 mmHg 68%
08:00 +11°C° 0 mm 3 m/s 761 mmHg 62%
09:00 +13°C° 0 mm 4 m/s 761 mmHg 55%
10:00 +14°C° 0 mm 4 m/s 761 mmHg 49%
11:00 +15°C° 0 mm 4 m/s 761 mmHg 45%
12:00 +17°C° 0 mm 4 m/s 761 mmHg 41%
13:00 +18°C° 0 mm 4 m/s 761 mmHg 38%
14:00 +18°C° 0 mm 3 m/s 761 mmHg 39%
15:00 +18°C° 0 mm 3 m/s 760 mmHg 40%
16:00 +18°C° 0 mm 3 m/s 760 mmHg 41%
17:00 +16°C° 0 mm 2 m/s 760 mmHg 45%
18:00 +15°C° 0 mm 2 m/s 760 mmHg 48%
19:00 +13°C° 0 mm 1 m/s 760 mmHg 52%
20:00 +12°C° 0 mm 1 m/s 760 mmHg 54%
21:00 +12°C° 0 mm 1 m/s 760 mmHg 55%
22:00 +11°C° 0 mm 1 m/s 760 mmHg 56%
23:00 +11°C° 0 mm 1 m/s 760 mmHg 57%

Mâine, 19 Septembrie, Sâmbătă

Timp Temperatura Precipitaţii Vânt Presiune Umiditate
00:00 +11°C° 0 mm 1 m/s 760 mmHg 58%
01:00 +10°C° 0 mm 1 m/s 761 mmHg 60%
02:00 +10°C° 0 mm 1 m/s 760 mmHg 61%
03:00 +10°C° 0 mm 1 m/s 760 mmHg 63%
04:00 +9°C° 0 mm 1 m/s 759 mmHg 64%
05:00 +10°C° 0 mm 1 m/s 760 mmHg 63%
06:00 +10°C° 0 mm 0 m/s 760 mmHg 61%
07:00 +11°C° 0 mm 0 m/s 760 mmHg 59%
08:00 +12°C° 0 mm 0 m/s 760 mmHg 54%
09:00 +15°C° 0 mm 1 m/s 760 mmHg 49%
10:00 +18°C° 0 mm 1 m/s 759 mmHg 44%
11:00 +19°C° 0 mm 1 m/s 759 mmHg 41%
12:00 +20°C° 0 mm 1 m/s 759 mmHg 39%
13:00 +20°C° 0 mm 1 m/s 758 mmHg 36%
14:00 +20°C° 0 mm 1 m/s 758 mmHg 37%
15:00 +20°C° 0 mm 1 m/s 758 mmHg 39%
16:00 +18°C° 0 mm 0 m/s 757 mmHg 40%
17:00 +18°C° 0 mm 1 m/s 757 mmHg 43%
18:00 +15°C° 0 mm 1 m/s 757 mmHg 47%
19:00 +13°C° 0 mm 1 m/s 757 mmHg 50%
20:00 +13°C° 0 mm 1 m/s 757 mmHg 51%
21:00 +13°C° 0 mm 1 m/s 757 mmHg 52%
22:00 +12°C° 0 mm 1 m/s 758 mmHg 53%
23:00 +12°C° 0 mm 1 m/s 757 mmHg 54%

Poimâine, 20 Septembrie, Duminică

Timp Temperatura Precipitaţii Vânt Presiune Umiditate
00:00 +11°C° 0 mm 1 m/s 757 mmHg 56%
01:00 +11°C° 0 mm 1 m/s 757 mmHg 57%
02:00 +10°C° 0 mm 2 m/s 757 mmHg 59%
03:00 +10°C° 0 mm 2 m/s 757 mmHg 60%
04:00 +9°C° 0 mm 2 m/s 757 mmHg 61%
05:00 +10°C° 0 mm 2 m/s 757 mmHg 61%
06:00 +10°C° 0 mm 2 m/s 757 mmHg 62%
07:00 +12°C° 0 mm 2 m/s 757 mmHg 62%
08:00 +13°C° 0 mm 2 m/s 757 mmHg 57%
09:00 +14°C° 0 mm 3 m/s 757 mmHg 52%
10:00 +17°C° 0 mm 3 m/s 756 mmHg 48%
11:00 +18°C° 0 mm 3 m/s 756 mmHg 45%
12:00 +19°C° 0 mm 3 m/s 756 mmHg 42%
13:00 +20°C° 0 mm 3 m/s 756 mmHg 39%
14:00 +19°C° 0 mm 3 m/s 755 mmHg 42%
15:00 +19°C° 0 mm 2 m/s 755 mmHg 45%
16:00 +19°C° 0 mm 2 m/s 755 mmHg 47%
17:00 +17°C° 0 mm 2 m/s 755 mmHg 50%
18:00 +16°C° 0 mm 2 m/s 755 mmHg 53%
19:00 +14°C° 0 mm 2 m/s 755 mmHg 55%
20:00 +14°C° 0 mm 2 m/s 755 mmHg 58%
21:00 +13°C° 0 mm 2 m/s 755 mmHg 61%
22:00 +13°C° 0 mm 2 m/s 755 mmHg 63%
23:00 +12°C° 0 mm 2 m/s 755 mmHg 67%

21 Septembrie, Luni

Timp Temperatura Precipitaţii Vânt Presiune Umiditate
00:00 +12°C° 0 mm 2 m/s 755 mmHg 70%
01:00 +10°C° 0 mm 2 m/s 755 mmHg 74%
02:00 +10°C° 0 mm 2 m/s 755 mmHg 76%
03:00 +10°C° 0 mm 2 m/s 755 mmHg 78%
04:00 +9°C° 0 mm 2 m/s 755 mmHg 80%
05:00 +10°C° 0 mm 2 m/s 755 mmHg 78%
06:00 +12°C° 0 mm 2 m/s 755 mmHg 76%
07:00 +12°C° 0 mm 2 m/s 755 mmHg 75%
08:00 +14°C° 0 mm 2 m/s 755 mmHg 68%
09:00 +16°C° 0 mm 2 m/s 755 mmHg 62%
10:00 +18°C° 0 mm 2 m/s 754 mmHg 55%
11:00 +20°C° 0 mm 2 m/s 754 mmHg 52%
12:00 +21°C° 0 mm 2 m/s 754 mmHg 48%
13:00 +23°C° 0 mm 1 m/s 754 mmHg 45%
14:00 +23°C° 0 mm 1 m/s 753 mmHg 45%
15:00 +23°C° 0 mm 1 m/s 753 mmHg 46%
16:00 +23°C° 0 mm 1 m/s 753 mmHg 46%
17:00 +21°C° 0 mm 1 m/s 753 mmHg 51%
18:00 +20°C° 0 mm 1 m/s 753 mmHg 56%
19:00 +18°C° 0 mm 1 m/s 753 mmHg 61%
20:00 +16°C° 0 mm 1 m/s 753 mmHg 62%
21:00 +16°C° 0 mm 2 m/s 753 mmHg 63%
22:00 +15°C° 0 mm 2 m/s 753 mmHg 63%
23:00 +15°C° 0 mm 2 m/s 752 mmHg 64%

22 Septembrie, Marţi

Timp Temperatura Precipitaţii Vânt Presiune Umiditate
00:00 +15°C° 0 mm 2 m/s 752 mmHg 65%
01:00 +15°C° 0 mm 2 m/s 752 mmHg 65%
02:00 +15°C° 0 mm 2 m/s 751 mmHg 67%
03:00 +13°C° 0 mm 3 m/s 751 mmHg 69%
04:00 +13°C° 0 mm 3 m/s 751 mmHg 70%
05:00 +14°C° 0 mm 3 m/s 751 mmHg 69%
06:00 +16°C° 0 mm 3 m/s 751 mmHg 67%
07:00 +16°C° 0 mm 3 m/s 751 mmHg 65%
08:00 +19°C° 0 mm 3 m/s 750 mmHg 58%
09:00 +21°C° 0 mm 4 m/s 750 mmHg 50%
10:00 +25°C° 0 mm 5 m/s 750 mmHg 43%
11:00 +26°C° 0 mm 5 m/s 749 mmHg 40%
12:00 +27°C° 0 mm 6 m/s 749 mmHg 38%
13:00 +27°C° 0 mm 6 m/s 749 mmHg 35%
14:00 +27°C° 0 mm 5 m/s 748 mmHg 38%
15:00 +27°C° 0 mm 4 m/s 748 mmHg 41%
16:00 +26°C° 0 mm 4 m/s 747 mmHg 44%
17:00 +23°C° 0 mm 4 m/s 747 mmHg 48%
18:00 +22°C° 0 mm 4 m/s 747 mmHg 51%
19:00 +20°C° 0 mm 3 m/s 747 mmHg 54%
20:00 +20°C° 0 mm 3 m/s 747 mmHg 56%
21:00 +19°C° 0 mm 3 m/s 747 mmHg 57%
22:00 +19°C° 0 mm 4 m/s 747 mmHg 58%
23:00 +18°C° 0 mm 3 m/s 746 mmHg 59%

23 Septembrie, Miercuri

Timp Temperatura Precipitaţii Vânt Presiune Umiditate
00:00 +18°C° 0 mm 3 m/s 746 mmHg 60%
01:00 +17°C° 0 mm 3 m/s 746 mmHg 61%
02:00 +17°C° 0 mm 3 m/s 746 mmHg 61%
03:00 +17°C° 0 mm 3 m/s 746 mmHg 61%
04:00 +16°C° 0 mm 3 m/s 746 mmHg 62%
05:00 +17°C° 0 mm 3 m/s 746 mmHg 62%
06:00 +17°C° 0 mm 3 m/s 746 mmHg 62%
07:00 +17°C° 0 mm 4 m/s 745 mmHg 62%
08:00 +19°C° 0 mm 4 m/s 745 mmHg 59%
09:00 +22°C° 0 mm 4 m/s 745 mmHg 56%
10:00 +25°C° 0 mm 4 m/s 745 mmHg 52%
11:00 +25°C° 0 mm 4 m/s 745 mmHg 51%
12:00 +26°C° 0 mm 4 m/s 745 mmHg 49%
13:00 +27°C° 0 mm 4 m/s 745 mmHg 48%
14:00 +26°C° 0.1 mm 4 m/s 744 mmHg 52%
15:00 +25°C° 0.1 mm 4 m/s 744 mmHg 56%
16:00 +25°C° 0.1 mm 3 m/s 744 mmHg 60%
17:00 +22°C° 0.1 mm 3 m/s 744 mmHg 65%
18:00 +21°C° 0.1 mm 3 m/s 744 mmHg 69%
19:00 +19°C° 0.1 mm 3 m/s 744 mmHg 74%
20:00 +19°C° 0 mm 3 m/s 744 mmHg 76%
21:00 +18°C° 0 mm 3 m/s 744 mmHg 78%
22:00 +18°C° 0 mm 3 m/s 744 mmHg 79%
23:00 +18°C° 0 mm 3 m/s 744 mmHg 80%
Arată mai mult